This is the latest recevied weather packets stored in our database for station/object WB8ZGM-13. If no packets are shown the sender has not sent any weather packets the latest 10 day(s).
| Time | Temp. | Humidity | Pressure | Rain* | Wind** | Luminosity | Snow |
|---|---|---|---|---|---|---|---|
| 1777843874 | 21.67° C | 38% | 999.4 hPa | 0 mm | - | - | - |
| 1777842944 | 21.67° C | 37% | 999.6 hPa | 0 mm | - | - | - |
| 1777842014 | 21.67° C | 37% | 999.8 hPa | 0 mm | - | - | - |
| 1777841084 | 22.22° C | 39% | 1000 hPa | 0 mm | - | - | - |
| 1777840184 | 21.67° C | 36% | 1000.2 hPa | 0 mm | - | - | - |
| 1777839284 | 22.78° C | 35% | 1000.8 hPa | 0 mm | - | - | - |
| 1777838384 | 21.67° C | 37% | 1000.9 hPa | 0 mm | - | - | - |
| 1777837454 | 22.22° C | 37% | 1001.1 hPa | 0 mm | - | - | - |
| 1777836554 | 22.22° C | 39% | 1001.2 hPa | 0 mm | - | - | - |
| 1777835624 | 21.67° C | 38% | 1001.6 hPa | 0 mm | - | - | - |
| 1777834694 | 21.11° C | 39% | 1001.8 hPa | 0 mm | - | - | - |
| 1777833764 | 21.11° C | 37% | 1002 hPa | 0 mm | - | - | - |
| 1777832834 | 21.11° C | 37% | 1002.2 hPa | 0 mm | - | - | - |
| 1777831934 | 20.56° C | 39% | 1002.2 hPa | 0 mm | - | - | - |
| 1777831034 | 20° C | 40% | 1002.5 hPa | 0 mm | - | - | - |
| 1777830133 | 20.56° C | 40% | 1002.5 hPa | 0 mm | - | - | - |
| 1777829204 | 20° C | 42% | 1002.9 hPa | 0 mm | - | - | - |
| 1777828273 | 20° C | 42% | 1003.1 hPa | 0 mm | - | - | - |
| 1777827343 | 18.89° C | 42% | 1003.2 hPa | 0 mm | - | - | - |
| 1777826443 | 18.89° C | 43% | 1003.3 hPa | 0 mm | - | - | - |
| 1777825513 | 18.33° C | 44% | 1003.6 hPa | 0 mm | - | - | - |
| 1777824583 | 18.89° C | 43% | 1003.7 hPa | 0 mm | - | - | - |
| 1777823653 | 17.22° C | 47% | 1003.9 hPa | 0 mm | - | - | - |
| 1777822723 | 16.67° C | 47% | 1004 hPa | 0 mm | - | - | - |
| 1777821793 | 17.22° C | 49% | 1004.1 hPa | 0 mm | - | - | - |
* Rain latest hour (hover to see other rain measurements)
** Current wind speed in m/s (hover to see current wind gust speed)